View from above orbital plane
|
View from above satellite
|
Ground track
|
The orbit data is extracted from the following two-line orbital elements,
1 13807U 81053HB 22228.55412752 .00000933 00000-0 44147-3 0 9991
2 13807 82.9518 70.7420 0011833 342.4852 17.5918 14.18740401780239
Epoch (UTC): | 16 August 2022 13:17:56 |
Eccentricity: | 0.0011833 |
inclination: | 82.9518° |
perigee height: | 821 km |
apogee height: | 838 km |
right ascension of ascending node: | 70.7420° |
argument of perigee: | 342.4852° |
revolutions per day: | 14.18740401 |
mean anomaly at epoch: | 17.5918° |
orbit number at epoch: | 78023 |
The dashed part of the orbit path shows where the satellite is in the earth's shadow,
|
|